Flag for U.S.A. Weather past 2 weeks in Garland, Texas, U.S.A.

Now
84 °F

Sunny.


Feels Like: 88 °F
Forecast: 77 / 94 °F
Wind: 9 mph from South

Location: Mesquite Metro Airport

Current Time: Jul 1, 2015 at 11:12:50 AM

Latest Report: Jul 1, 2015 at 10:50 AM


Visibility: 10 mi

Pressure: 30.03 "Hg

Humidity: 62%

Dew point: 70 °F

Location of GarlandLocation

Historic Weather in Garland — Graph

°F

Garland temperature yesterday

Maximum temperature yesterday: 91 °F (at 1:50 PM)
Minimum temperature yesterday: 70 °F (at 3:55 AM)
Average temperature yesterday: 79 °F

Past Weeks' High & Low Weather Summary

 TemperatureHumidityPressure
High93 °F (Jun 18, 3:50 PM)100% (Jun 17, 6:50 AM)30.19 "Hg (Jun 17, 6:50 AM)
Low69 °F (Jun 28, 4:55 AM)24% (Jun 28, 5:50 PM)29.74 "Hg (Jun 17, 3:50 PM)
Average79 °F80%30.00 "Hg
* Reported Jun 16 9:50 AM — Jul 1 9:50 AM, Garland, Weather by CustomWeather, © 2015

Note: Actual official high and low records may vary slightly from our data, if they occured in-between our weather recording intervals... More about our weather records

Advertising

Garland weather history for previous 24 hours

 ConditionsComfort  
Time TempWeatherWind HumidityBarometerVisibility
9:50 AM
Wed, Jul 1
81 °FSunny.12 mph70%30.03 "Hg10 mi
8:50 AM79 °FSunny.10 mph79%30.02 "Hg10 mi
7:50 AM73 °FScattered clouds.7 mph100%30.02 "Hg10 mi
6:50 AM72 °FClear.6 mph100%30.01 "Hg10 mi
6:15 AM72 °FClear.7 mph97%30.01 "Hg10 mi
5:55 AM72 °FPassing clouds.7 mph97%30.01 "Hg10 mi
5:15 AM73 °FLow clouds.8 mph97%30.00 "Hg10 mi
4:55 AM72 °FPassing clouds.7 mph97%30.00 "Hg10 mi
4:15 AM72 °FPassing clouds.8 mph97%29.99 "Hg10 mi
3:55 AM72 °FClear.7 mph97%30.00 "Hg10 mi
3:35 AM73 °FClear.8 mph97%30.01 "Hg10 mi
3:15 AM72 °FClear.7 mph97%30.01 "Hg10 mi
2:55 AM72 °FClear.8 mph96%30.01 "Hg10 mi
2:35 AM72 °FClear.6 mph95%30.01 "Hg10 mi
2:15 AM72 °FClear.7 mph95%30.01 "Hg10 mi
1:55 AM72 °FClear.6 mph95%30.01 "Hg10 mi
1:35 AM73 °FClear.6 mph93%30.01 "Hg10 mi
1:15 AM74 °FClear.5 mph91%30.01 "Hg10 mi
12:55 AM74 °FClear.6 mph90%30.01 "Hg10 mi
12:35 AM75 °FClear.5 mph87%30.02 "Hg10 mi
12:15 AM76 °FClear.5 mph85%30.02 "Hg10 mi
11:55 PM
Tue, Jun 30
77 °FClear.7 mph81%30.02 "Hg10 mi
11:15 PM78 °FClear.9 mph76%30.02 "Hg10 mi
10:55 PM79 °FClear.13 mph75%30.02 "Hg10 mi
10:15 PM81 °FClear.14 mph71%30.01 "Hg10 mi
9:55 PM80 °FPassing clouds.17 mph81%30.00 "Hg10 mi
9:35 PM81 °FSunny.6 mph83%29.99 "Hg10 mi
9:15 PM81 °FSunny.8 mph81%29.99 "Hg10 mi
7:50 PM84 °FSunny.9 mph66%29.95 "Hg10 mi
6:50 PM90 °FSunny.9 mph55%29.95 "Hg10 mi
5:50 PM91 °FSunny.10 mph49%29.94 "Hg10 mi
4:50 PM91 °FSunny.7 mph49%29.94 "Hg10 mi
3:50 PM91 °FSunny.6 mph49%29.96 "Hg10 mi
2:50 PM91 °FSunny.7 mph49%29.98 "Hg10 mi
1:50 PM91 °FSunny.5 mph49%30.01 "Hg10 mi
12:50 PM90 °FSunny.9 mph52%30.02 "Hg10 mi
11:50 AM88 °FSunny.6 mph52%30.04 "Hg10 mi
Weather by CustomWeather, © 2015

See weather overviewHow to use our weather pages